Location: *
(38.3914°N, 75.0697°W)
Time: 06:07:18
(UTC+00:00)

Cosmos 1805 Rocket - Pass Details

Date: 17 February 2020
Orbit: 607 x 629 km, 82.5° (Epoch: 09 April)

Event Time Altitude Azimuth Distance (km) Brightness Sun altitude
Rises 11:18:52 0° 343° (NNW) 2,872 6.7 -6.6°
Reaches altitude 10° 11:21:12 10° 335° (NNW) 1,963 5.8 -6.1°
Maximum altitude 11:25:11 37° 269° (W) 953 4.1 -5.4°
Drops below altitude 10° 11:29:10 10° 202° (SSW) 1,952 6.0 -4.6°
Sets 11:31:29 0° 193° (SSW) 2,853 7.0 -4.2°
